Flag for U.S.A. Weather past 2 weeks in Winston-Salem, North Carolina, U.S.A.

Now
66 °F

Mostly cloudy.


Feels Like: 66 °F
Forecast: 62 / 74 °F
Wind: 3 mph from Northeast

Location: Smith Reynolds Airport

Current Time: Sep 19, 2014 at 6:20:52 AM

Latest Report: Sep 19, 2014 at 5:54 AM


Visibility: 10 mi

Pressure: 30.10 "Hg

Humidity: 87%

Dew point: 62 °F

Location of Winston-SalemLocation

Historic Weather in Winston-Salem — Graph

°F

Winston-Salem temperature yesterday

Maximum temperature yesterday: 75 °F (at 12:54 PM)
Minimum temperature yesterday: 60 °F (at 6:54 AM)
Average temperature yesterday: 68 °F

Past Weeks' High & Low Weather Summary

 TemperatureHumidityPressure
High88 °F (Sep 11, 4:54 PM)96% (Sep 6, 6:54 AM)30.29 "Hg (Sep 6, 6:54 AM)
Low60 °F (Sep 18, 6:54 AM)49% (Sep 16, 1:54 PM)29.93 "Hg (Sep 17, 6:54 PM)
Average71 °F79%30.08 "Hg
* Reported Sep 4 4:54 AM — Sep 19 4:54 AM, Winston-Salem, Weather by CustomWeather, © 2014

Note: Actual official high and low records may vary slightly from our data, if they occured in-between our weather recording intervals... More about our weather records

Advertising

Winston-Salem weather history for previous 24 hours

 ConditionsComfort  
Time TempWeatherWind HumidityBarometerVisibility
4:54 AM
Sep 19
66 °FPartly cloudy.No wind87%30.09 "Hg10 mi
3:54 AM67 °FMostly cloudy.No wind85%30.07 "Hg10 mi
2:54 AM67 °FOvercast.5 mph81%30.06 "Hg10 mi
1:54 AM67 °FOvercast.3 mph81%30.07 "Hg10 mi
12:54 AM68 °FOvercast.3 mph78%30.06 "Hg10 mi
11:54 PM
Sep 18
68 °FOvercast.3 mph82%30.06 "Hg10 mi
10:54 PM68 °FPassing clouds.No wind82%30.04 "Hg10 mi
9:54 PM69 °FPassing clouds.3 mph79%30.04 "Hg10 mi
8:54 PM70 °FPassing clouds.3 mph79%30.02 "Hg10 mi
7:54 PM71 °FMostly cloudy.3 mph76%30.00 "Hg10 mi
6:54 PM72 °FMostly cloudy.3 mph73%29.98 "Hg10 mi
5:54 PM73 °FOvercast.No wind71%29.98 "Hg10 mi
4:54 PM73 °FLight rain. Overcast.5 mph69%29.98 "Hg10 mi
3:54 PM75 °FMostly cloudy.6 mph62%29.97 "Hg10 mi
2:54 PM75 °FBroken clouds.5 mph62%29.98 "Hg10 mi
1:54 PM75 °FPartly sunny.9 mph60%30.00 "Hg10 mi
12:54 PM75 °FScattered clouds.5 mph60%30.01 "Hg10 mi
12:03 PM74 °FPartly sunny.5 mph64%30.04 "Hg10 mi
11:54 AM73 °FScattered clouds.3 mph66%30.01 "Hg10 mi
10:54 AM69 °FMostly cloudy.No wind79%30.03 "Hg10 mi
9:54 AM66 °FOvercast.No wind81%30.01 "Hg10 mi
8:54 AM64 °FFog.3 mph90%30.00 "Hg5 mi
7:54 AM62 °FFog.No wind93%30.00 "Hg0 mi
6:54 AM60 °FFog.3 mph93%29.97 "Hg5 mi
Weather by CustomWeather, © 2014

See weather overviewHow to use our weather pages